Location: Newark
(46.8500°N, 5.1667°E)
Time: 11:11:41
(UTC+00:00)

ISS - Pass Details

Date: 24 September 2019
Orbit: 411 x 421 km, 51.6° (Epoch: 22 October)

Event Time Altitude Azimuth Distance (km) Brightness Sun altitude
Rises 19:17:30 0° 264° (W) 2,341 1.2 -18.2°
Reaches altitude 10° 19:19:39 10° 271° (W) 1,480 0.1 -18.6°
Maximum altitude 19:22:51 45° 345° (NNW) 574 -2.9 -19.1°
Enters shadow 19:23:44 35° 29° (NNE) 683 -2.8 -19.2°
